Hourly Weather La Laguna

Today, 11 August, Tuesday

Time Temperature Precipitation Wind Pressure Humidity
00:00 +21°C° 0 mm 6 mps 713 mmHg 60%
01:00 +20°C° 0 mm 6 mps 713 mmHg 61%
02:00 +20°C° 0 mm 6 mps 713 mmHg 62%
03:00 +20°C° 0 mm 6 mps 713 mmHg 67%
04:00 +19°C° 0 mm 6 mps 713 mmHg 72%
05:00 +19°C° 0 mm 6 mps 713 mmHg 77%
06:00 +21°C° 0 mm 6 mps 713 mmHg 68%
07:00 +23°C° 0 mm 6 mps 714 mmHg 59%
08:00 +26°C° 0 mm 6 mps 714 mmHg 50%
09:00 +27°C° 0 mm 6 mps 714 mmHg 50%
10:00 +28°C° 0 mm 6 mps 715 mmHg 49%
11:00 +29°C° 0 mm 7 mps 715 mmHg 49%
12:00 +29°C° 0 mm 7 mps 715 mmHg 51%
13:00 +28°C° 0 mm 7 mps 714 mmHg 54%
14:00 +28°C° 0 mm 7 mps 714 mmHg 57%
15:00 +27°C° 0 mm 7 mps 714 mmHg 58%
16:00 +27°C° 0 mm 7 mps 714 mmHg 59%
17:00 +26°C° 0 mm 7 mps 714 mmHg 60%
18:00 +24°C° 0 mm 7 mps 714 mmHg 67%
19:00 +23°C° 0 mm 7 mps 714 mmHg 74%
20:00 +21°C° 0 mm 7 mps 714 mmHg 81%
21:00 +21°C° 0 mm 7 mps 715 mmHg 82%
22:00 +21°C° 0 mm 7 mps 715 mmHg 82%
23:00 +20°C° 0 mm 7 mps 715 mmHg 82%

Tomorrow, 12 August, Wednesday

Time Temperature Precipitation Wind Pressure Humidity
00:00 +20°C° 0 mm 7 mps 715 mmHg 77%
01:00 +20°C° 0 mm 7 mps 714 mmHg 72%
02:00 +18°C° 0 mm 7 mps 714 mmHg 67%
03:00 +20°C° 0 mm 7 mps 714 mmHg 68%
04:00 +20°C° 0 mm 7 mps 714 mmHg 70%
05:00 +20°C° 0 mm 7 mps 714 mmHg 71%
06:00 +21°C° 0 mm 7 mps 714 mmHg 69%
07:00 +22°C° 0 mm 7 mps 714 mmHg 66%
08:00 +23°C° 0 mm 7 mps 715 mmHg 64%
09:00 +24°C° 0 mm 7 mps 715 mmHg 59%
10:00 +26°C° 0 mm 7 mps 715 mmHg 54%
11:00 +28°C° 0 mm 7 mps 715 mmHg 49%
12:00 +28°C° 0 mm 8 mps 715 mmHg 50%
13:00 +28°C° 0 mm 8 mps 715 mmHg 52%
14:00 +29°C° 0 mm 8 mps 715 mmHg 53%
15:00 +28°C° 0 mm 8 mps 715 mmHg 56%
16:00 +27°C° 0 mm 8 mps 714 mmHg 59%
17:00 +26°C° 0 mm 8 mps 714 mmHg 62%
18:00 +24°C° 0 mm 8 mps 714 mmHg 66%
19:00 +22°C° 0 mm 7 mps 714 mmHg 70%
20:00 +21°C° 0 mm 7 mps 715 mmHg 74%
21:00 +21°C° 0 mm 7 mps 715 mmHg 71%
22:00 +21°C° 0 mm 7 mps 715 mmHg 69%
23:00 +21°C° 0 mm 7 mps 715 mmHg 66%

Day after tomorrow, 13 August, Thursday

Time Temperature Precipitation Wind Pressure Humidity
00:00 +21°C° 0 mm 7 mps 715 mmHg 65%
01:00 +21°C° 0 mm 7 mps 714 mmHg 63%
02:00 +20°C° 0 mm 7 mps 714 mmHg 61%
03:00 +20°C° 0 mm 7 mps 714 mmHg 63%
04:00 +20°C° 0 mm 7 mps 714 mmHg 64%
05:00 +20°C° 0 mm 7 mps 714 mmHg 65%
06:00 +21°C° 0 mm 7 mps 714 mmHg 64%
07:00 +23°C° 0 mm 7 mps 715 mmHg 62%
08:00 +24°C° 0 mm 8 mps 715 mmHg 61%
09:00 +27°C° 0 mm 8 mps 715 mmHg 55%
10:00 +28°C° 0 mm 8 mps 716 mmHg 49%
11:00 +31°C° 0 mm 8 mps 716 mmHg 42%
12:00 +31°C° 0 mm 8 mps 716 mmHg 43%
13:00 +31°C° 0 mm 8 mps 716 mmHg 45%
14:00 +31°C° 0 mm 8 mps 715 mmHg 46%
15:00 +30°C° 0 mm 7 mps 715 mmHg 50%
16:00 +29°C° 0 mm 7 mps 715 mmHg 54%
17:00 +28°C° 0 mm 7 mps 714 mmHg 58%
18:00 +27°C° 0 mm 7 mps 715 mmHg 60%
19:00 +26°C° 0 mm 7 mps 715 mmHg 63%
20:00 +24°C° 0 mm 7 mps 715 mmHg 66%
21:00 +24°C° 0 mm 7 mps 715 mmHg 63%
22:00 +23°C° 0 mm 7 mps 715 mmHg 60%
23:00 +23°C° 0 mm 7 mps 715 mmHg 57%

14 August, Friday

Time Temperature Precipitation Wind Pressure Humidity
00:00 +23°C° 0 mm 7 mps 715 mmHg 60%
01:00 +22°C° 0 mm 7 mps 715 mmHg 63%
02:00 +22°C° 0 mm 7 mps 715 mmHg 66%
03:00 +21°C° 0 mm 7 mps 715 mmHg 69%
04:00 +20°C° 0 mm 7 mps 715 mmHg 72%
05:00 +20°C° 0 mm 7 mps 715 mmHg 75%
06:00 +22°C° 0 mm 7 mps 715 mmHg 65%
07:00 +24°C° 0 mm 7 mps 715 mmHg 55%
08:00 +28°C° 0 mm 7 mps 715 mmHg 46%
09:00 +29°C° 0 mm 7 mps 716 mmHg 45%
10:00 +30°C° 0 mm 7 mps 716 mmHg 45%
11:00 +30°C° 0 mm 7 mps 716 mmHg 45%
12:00 +32°C° 0 mm 7 mps 716 mmHg 45%
13:00 +32°C° 0 mm 8 mps 715 mmHg 45%
14:00 +32°C° 0 mm 8 mps 715 mmHg 45%
15:00 +32°C° 0 mm 8 mps 715 mmHg 47%
16:00 +31°C° 0 mm 8 mps 715 mmHg 48%
17:00 +29°C° 0 mm 7 mps 715 mmHg 50%
18:00 +28°C° 0 mm 7 mps 715 mmHg 55%
19:00 +26°C° 0 mm 7 mps 715 mmHg 61%
20:00 +24°C° 0 mm 7 mps 716 mmHg 67%
21:00 +23°C° 0 mm 7 mps 716 mmHg 68%
22:00 +22°C° 0 mm 7 mps 716 mmHg 70%
23:00 +22°C° 0 mm 7 mps 716 mmHg 71%

15 August, Saturday

Time Temperature Precipitation Wind Pressure Humidity
00:00 +21°C° 0 mm 7 mps 715 mmHg 70%
01:00 +21°C° 0 mm 7 mps 715 mmHg 68%
02:00 +21°C° 0 mm 7 mps 714 mmHg 66%
03:00 +21°C° 0 mm 7 mps 714 mmHg 65%
04:00 +21°C° 0 mm 7 mps 714 mmHg 64%
05:00 +21°C° 0 mm 7 mps 714 mmHg 63%
06:00 +23°C° 0 mm 7 mps 714 mmHg 58%
07:00 +24°C° 0 mm 7 mps 715 mmHg 53%
08:00 +27°C° 0 mm 7 mps 715 mmHg 48%
09:00 +28°C° 0 mm 7 mps 715 mmHg 46%
10:00 +29°C° 0 mm 7 mps 715 mmHg 45%
11:00 +30°C° 0 mm 7 mps 715 mmHg 43%
12:00 +30°C° 0 mm 7 mps 715 mmHg 45%
13:00 +31°C° 0 mm 8 mps 715 mmHg 46%
14:00 +31°C° 0 mm 8 mps 715 mmHg 47%
15:00 +31°C° 0 mm 8 mps 714 mmHg 52%
16:00 +29°C° 0 mm 7 mps 714 mmHg 56%
17:00 +28°C° 0 mm 7 mps 714 mmHg 60%
18:00 +26°C° 0 mm 7 mps 714 mmHg 63%
19:00 +24°C° 0 mm 7 mps 715 mmHg 65%
20:00 +22°C° 0 mm 7 mps 715 mmHg 68%
21:00 +22°C° 0 mm 7 mps 715 mmHg 69%
22:00 +22°C° 0 mm 8 mps 715 mmHg 70%
23:00 +22°C° 0 mm 8 mps 715 mmHg 71%

16 August, Sunday

Time Temperature Precipitation Wind Pressure Humidity
00:00 +21°C° 0 mm 8 mps 714 mmHg 72%
01:00 +21°C° 0 mm 8 mps 714 mmHg 72%
02:00 +21°C° 0 mm 7 mps 713 mmHg 73%
03:00 +21°C° 0 mm 8 mps 714 mmHg 74%
04:00 +21°C° 0 mm 8 mps 714 mmHg 75%
05:00 +20°C° 0 mm 8 mps 714 mmHg 77%
06:00 +22°C° 0 mm 8 mps 714 mmHg 70%
07:00 +23°C° 0 mm 8 mps 714 mmHg 62%
08:00 +26°C° 0 mm 7 mps 715 mmHg 55%
09:00 +27°C° 0 mm 8 mps 715 mmHg 53%
10:00 +28°C° 0 mm 8 mps 715 mmHg 52%
11:00 +29°C° 0 mm 8 mps 715 mmHg 50%
12:00 +29°C° 0 mm 8 mps 715 mmHg 49%
13:00 +29°C° 0 mm 8 mps 714 mmHg 49%
14:00 +31°C° 0 mm 8 mps 714 mmHg 48%
15:00 +29°C° 0 mm 8 mps 714 mmHg 50%
16:00 +28°C° 0 mm 8 mps 714 mmHg 52%
17:00 +27°C° 0 mm 8 mps 714 mmHg 54%
18:00 +26°C° 0 mm 8 mps 714 mmHg 61%
19:00 +23°C° 0 mm 8 mps 715 mmHg 67%
20:00 +21°C° 0 mm 8 mps 715 mmHg 73%
21:00 +21°C° 0 mm 7 mps 715 mmHg 72%
22:00 +21°C° 0 mm 7 mps 715 mmHg 70%
23:00 +20°C° 0 mm 7 mps 715 mmHg 68%
Show more